Regional Weather Roundup
Issued by NWS

Home | Current Version | Previous Version | Graphics & Text | Print | Product List | Glossary On
Versions: 1 2 3 4 5 6 7 8 9 10 11 12 13 14 15 16 17 18 19 20 21 22 23 24 25 26 27 28 29 30 31 32 33 34 35 36 37 38 39 40 41 42 43 44 45 46 47 48 49 50
695
ASUS44 KLIX 310201
RWRLA
LOUISIANA WEATHER ROUNDUP
NATIONAL WEATHER SERVICE NEW ORLEANS LA
800 PM CST FRI JAN 30 2015

NOTE: "FAIR" INDICATES FEW OR NO CLOUDS BELOW 12,000 FEET WITH NO
      SIGNIFICANT WEATHER AND/OR OBSTRUCTIONS TO VISIBILITY.
      SKY/WX - SKY CONDITION AND SIGNIFICANT WEATHER.
      TMP - AIR TEMPERATURE.    DP   - DEWPOINT TEMPERATURE.
      RH  - RELATIVE HUMIDITY.  PRES - PRESSURE.
      HX  - HEAT INDEX.         WCI  - WIND CHILL INDEX.

*  THESE STATIONS ARE NOT NWS OR FAA STATIONS AND ARE NOT UNDER
   NWS QUALITY CONTROL.

LAZ040-048-061>063-065-066-069-310300-
SOUTHEAST LOUISIANA

CITY           SKY/WX    TMP DP  RH WIND       PRES   REMARKS
N.O. AUDUBON     N/A     52  42  68 MISG        N/A
N.O. INTL ARPT MOCLDY    51  36  56 N8        30.34S
N.O. LAKEFRONT PTCLDY    55  43  63 N10       30.35R
N.O. DOWNTOWN* NOT AVBL
SLIDELL        PTCLDY    44  39  82 N3        30.35R
BATON ROUGE    PTCLDY    47  35  63 CALM      30.35S
BOOTHVILLE     PTCLDY    49  42  77 CALM      30.34R
BELLE CHASSE   MOCLDY    51  38  60 CALM      30.34R
BOGALUSA*        N/A     43  38  80 CALM      30.37R
GALLIANO*      NOT AVBL
NEW ROADS*     NOT AVBL
GONZALES*      NOT AVBL
HAMMOND*       NOT AVBL
HOUMA*         PTCLDY    48  37  64 NE6       30.34R
PORT FOURCHON* CLEAR     55  43  62 NE9       30.36R

$$

LAZ041-044-053-054-310300-
SOUTHWEST LOUISIANA

CITY           SKY/WX    TMP DP  RH WIND       PRES   REMARKS
LAKE CHARLES   MOCLDY    50  39  66 NE8       30.33S
LAFAYETTE      PTCLDY    48  35  60 NE7       30.34S
PATTERSON      PTCLDY    48  37  66 NE5       30.35R
SALT POINT       N/A     50  38  63 CALM      30.33R
NEW IBERIA     PTCLDY    48  35  60 N8        30.35R
CHENAULT AIRPK NOT AVBL

$$

LAZ027-028-310300-
CENTRAL LOUISIANA

CITY           SKY/WX    TMP DP  RH WIND       PRES   REMARKS
FORT POLK      PTCLDY    48  34  56 NE6       30.35R
ALEXANDRIA INT MOCLDY    48  34  58 NE7       30.37R
ALEXANDRIA     MOCLDY    42  35  76 CALM      30.38S

$$

LAZ001-002-310300-
NORTHWEST LOUISIANA

CITY           SKY/WX    TMP DP  RH WIND       PRES   REMARKS
SHREVEPORT     PTCLDY    46  30  53 E8        30.38S
BARKSDALE AFB  PTCLDY    47  30  52 E3        30.39R
DTN SHREVEPORT PTCLDY    49  29  46 E5        30.39S

$$

LAZ014-016-310300-
NORTHEAST LOUISIANA

CITY           SKY/WX    TMP DP  RH WIND       PRES   REMARKS
MONROE         MOCLDY    42  32  67 NE7       30.42S
TALLULAH       MOCLDY    42  33  70 N7        30.41R

$$




USA.gov is the U.S. government's official web portal to all federal, state and local government web resources and services.